Regional Weather Roundup
Issued by NWS

Home | Current Version | Previous Version | Text Only | Print | Product List | Glossary Off
Versions: 1 2 3 4 5 6 7 8 9 10 11 12 13 14 15 16 17 18 19 20 21 22 23 24 25 26 27 28 29 30 31 32 33 34 35 36 37 38 39 40 41 42 43 44 45 46 47 48 49 50

000
ASUS43 KMKX 271121
RWRWI

WISCONSIN REGIONAL WEATHER ROUNDUP
NATIONAL WEATHER SERVICE MILWAUKEE/SULLIVAN WI
500 AM CST SAT DEC 27 2014

NOTE: "FAIR" INDICATES FEW OR NO CLOUDS BELOW 12,000 FEET WITH NO
SIGNIFICANT WEATHER AND/OR OBSTRUCTIONS TO VISIBILITY.

WIZ001-002-006>008-014>016-023>028-271200-
NORTHWEST WISCONSIN

CITY           SKY/WX    TMP DP  RH WIND       PRES   REMARKS
SUPERIOR ARPT  CLOUDY    25  19  79 N7        30.03F WCI  17
ASHLAND        LGT SNOW  26  25  96 N10       29.99F FOG     WCI  16
HAYWARD        LGT SNOW  26  24  92 N3        29.96R VSB 1
SIREN          LGT SNOW  24  23  93 N6        30.01R WCI  17
CUMBERLAND     LGT SNOW  27  23  86 N14       29.95R WCI  15
RICE LAKE      LGT SNOW  28  25  91 N9        29.94F VSB 1   WCI  19
CHETEK         LGT SNOW  28  27  95 N6        29.93S WCI  21
LADYSMITH      LGT SNOW  29  28  93 N10       29.92F WCI  20
EAU CLAIRE     LGT SNOW  29  26  89 N10       29.88F FOG     WCI  20
MENOMONIE      LGT SNOW  30  28  94 N10       29.91F WCI  21
NEW RICHMOND   LGT SNOW  26  25  98 N15       29.96F WCI  13
OSCEOLA        LGT SNOW  25  25 100 NW10      30.01F VSB 1   WCI  15
$$

WIZ003>005-009-010-017-018-271200-
NORTH CENTRAL WISCONSIN

CITY           SKY/WX    TMP DP  RH WIND       PRES   REMARKS
MANITOWISH WTR LGT SNOW  27  27 100 N6        29.90F WCI  21
ARBOR VITAE    LGT SNOW  32  30  94 NE5       29.88F WCI  27
WOODRUFF       LGT SNOW  32  30  94 NE5       29.88F WCI  27
RHINELANDER    LGT SNOW  28  27  96 NE7       29.88F VSB 3/4 WCI  21
EAGLE RIVER    MIX PCPN  28  28 100 NE7       29.88F WCI  21
LAND O LAKES   LGT SNOW  29  28  96 NE5       29.91F WCI  24
PHILLIPS       LGT SNOW  28  26  95 N9        29.88F WCI  19
TOMAHAWK       LGT SNOW  29  28  95 CALM      29.89F VSB 1
MEDFORD        LGT SNOW  29  28  96 NE8       29.85F WCI  21
MERRILL        LGT SNOW  31  31  99 E3        29.88S
$$

WIZ029-030-035-036-043>047-271200-
CENTRAL WISCONSIN

CITY           SKY/WX    TMP DP  RH WIND       PRES   REMARKS
WAUSAU         LGT SNOW  32  30  92 E5        29.86S FOG     WCI  27
MOSINEE        LGT SNOW  32  32 100 CALM      29.89R
MARSHFIELD     LGT SNOW  33  31  92 E8        29.84F FOG     WCI  26
STEVENS POINT  MIX PCPN  31  31 100 E5        29.87F VSB 1   WCI  26
WAUPACA        FOG       35  34  96 CALM      29.89R VSB 3/4
WAUTOMA        LGT RAIN  34  34 100 NE3       29.87F VSB 1
WISC RAPIDS    LGT RAIN  33  31  92 E6        29.86F FOG     WCI  28
CAMP DOUGLAS   LGT RAIN  32  32 100 E5        29.83F FOG     WCI  27
$$

WIZ011>013-019>022-031-037>040-048>050-271200-
NORTHEAST WISCONSIN

CITY           SKY/WX    TMP DP  RH WIND       PRES   REMARKS
ANTIGO         MIX PCPN  31  30  98 E3        29.88R
SHAWANO        FOG       34  33  96 E5        29.91F VSB 1/4 WCI  30
OCONTO         CLOUDY    33  33 100 NE5       29.89F VSB 1/2 WCI  29
STURGEON BAY   CLOUDY    37  36  93 E5        29.91F VSB 1/4 WCI  34
GREEN BAY      FOG       34  34 100 NE6       29.90F VSB 1/4 WCI  29
MANITOWOC      FOG       37  37 100 CALM      29.89F VSB 1/2
APPLETON       NOT AVBL
CLINTONVILLE   FOG       32  32 100 E5        29.89R VSB 1/2 WCI  27
OSHKOSH        LGT RAIN  35  34  96 CALM      29.87F FOG
$$

WIZ032>034-041-042-053>061-271200-
SOUTHWEST WISCONSIN

CITY           SKY/WX    TMP DP  RH WIND       PRES   REMARKS
LA CROSSE      LGT SNOW  33  32  96 NW6       29.87R FOG     WCI  28
SPARTA         LGT RAIN  33  33 100 CALM      29.87S
VIROQUA        CLOUDY    33  33 100 CALM      29.83S
BOSCOBEL       RAIN      35  33  92 SW3       29.88R FOG
PRAIRIE DU CHI LGT RAIN  34  32  94 CALM      29.86S
PLATTEVILLE    MOCLDY    40  39  97 S7        29.86S WCI  35
$$

WIZ056-057-062-063-064-067-068-271200-
SOUTH CENTRAL WISCONSIN

CITY           SKY/WX    TMP DP  RH WIND       PRES   REMARKS
REEDSBURG      CLOUDY    32  32 100 E3        29.83F FOG
BARABOO/DELLS  MIX PCPN  32  32 100 E3        29.86F VSB 1/2
LONE ROCK      CLOUDY    38  34  85 CALM      29.86F FOG
MINERAL POINT  CLOUDY    41  41 100 SE8       29.83F FOG
MADISON        CLOUDY    40  38  93 S5        29.86F FOG
MIDDLETON      CLOUDY    39  39  99 CALM      29.86F
WATERTOWN      CLOUDY    42  42 100 S6        29.87S FOG
MONROE         CLOUDY    43  43 100 S15       29.86F FOG
JANESVILLE     CLOUDY    46  43  87 S9        29.89R
$$

WIZ051-052-058>065-066-070>072-271200-
SOUTHEAST WISCONSIN

CITY           SKY/WX    TMP DP  RH WIND       PRES   REMARKS
MILWAUKEE      CLOUDY    45  41  86 S9        29.91F
WAUKESHA       CLOUDY    41  41 100 S6        29.90F
MILWAUKEE/TIMM CLOUDY    43  41  93 S9        29.91S
RACINE         PTCLDY    42  39  89 S7        29.93F
BURLINGTON     CLOUDY    43  41  93 S7        29.90S
KENOSHA        MOCLDY    45  42  89 S10       29.92F
FOND DU LAC    CLOUDY    37  35  92 CALM      29.88F
SHEBOYGAN      LGT RAIN  35  35 100 SW6       29.90R VSB 1   WCI  30
WEST BEND      CLOUDY    36  36 100 CALM      29.90S FOG
JUNEAU         CLOUDY    39  39  99 SE7       29.88F FOG     WCI  34
$$

LSZ147-162-271200-
LAKE SUPERIOR

STATION/POSITION TIME  TEMP    WIND        PRES    WAVE
                       AIR SEA DIR/SP/G            HT/PER
                 (UTC) (F)     (DEG/KT/KT) (MB)    (FT/S)
DEVILS ISLAND    1100   29      20/ 14/ 15 1017.1F
PORT WING        1000   28     360/ 10/ 14 1017.6F
SAXON HARBOR     1000   31      30/ 12/ 14 1016.3F
$$

LMZ867-665-643>646-271200-
LAKE MICHIGAN

STATION/POSITION TIME  TEMP    WIND        PRES    WAVE
                       AIR SEA DIR/SP/G            HT/PER
                 (UTC) (F)     (DEG/KT/KT) (MB)    (FT/S)
CHAMBERS ISLAND  1000   34      30/  5/  7 1014.9F
NORTHPORT PIER   1100   35      50/  5/  8 1013.5F
SISTER BAY       1043          100/  2/  5   N/A
ALGOMA LAKESHORE 1045           80/  7/  7   N/A
KEWAUNEE LAKESHO 1100   36      40/  3/  7 1010.8F
SHEBOYGAN LAKESH 1100   39 39  150/  3/  4 1012.9F
PORT WASHINGTON  1020   39      80/  2/ 23 1013.2F
MILWAUKEE LAKESH 1100   39     180/  8/  9   N/A
KENOSHA   LAKESH 1100   40     180/ 10/ 13 1013.5F
$$

TC  - TEMPERATURE IN CELSIUS
VSB - VISIBILITY IN STATUTE MILES
WCI - WIND CHILL INDEX
HX  - HEAT INDEX



USA.gov is the U.S. government's official web portal to all federal, state and local government web resources and services.